Location: Caltech
(34.1382°N, 118.1253°W)
Time: 06:21:35
(UTC-08:00)

Iridium 59 - Visible Passes

Search period start: 27 November 2014 00:00
Search period end: 07 December 2014 00:00
Orbit: 776 x 779 km, 86.4° (Epoch: 26 November)

Date Brightness Start Highest point End Pass type
(mag) Time Alt. Az. Time Alt. Az. Time Alt. Az.
27 Nov 7.5 03:14:54 17° ENE 03:15:00 17° ENE 03:18:18 10° ESE visible
27 Nov 5.2 04:55:29 43° WNW 04:55:54 44° W 05:00:47 10° SSW visible
27 Nov 7.7 17:45:15 10° SW 17:48:54 19° W 17:52:34 10° NW visible
28 Nov 5.3 04:23:33 57° S 04:23:33 57° S 04:27:40 10° S visible
28 Nov 6.7 17:10:25 10° SSW 17:15:11 36° W 17:19:58 10° NNW visible
29 Nov 6.7 03:51:28 27° SE 03:51:28 27° SE 03:53:55 10° SSE visible
29 Nov 7.0 05:32:02 10° WSW 05:32:02 10° WSW 05:32:04 10° WSW visible
30 Nov 7.8 03:19:15 11° SE 03:19:15 11° SE 03:19:29 10° SE visible
30 Nov 7.1 04:59:48 13° SW 04:59:48 13° SW 05:00:20 10° SW visible
30 Nov 8.0 17:46:58 10° WSW 17:49:11 13° WNW 17:51:24 10° NW visible
01 Dec 7.4 04:27:28 11° SSW 04:27:28 11° SSW 04:27:36 10° SSW visible
01 Dec 7.4 17:11:11 10° SW 17:15:23 25° W 17:19:36 10° NNW visible
04 Dec 7.7 17:12:23 10° WSW 17:15:38 17° WNW 17:18:54 10° NW visible
